Weather History for KFSO - December, 2012

Change the Weather History Date:

Monday, December 3, 2012

  Actual Average (KPBG) Record (KPBG)
Temperature  
Mean Temperature 41 °F 30 °F  
Max Temperature 46 °F 38 °F 54 °F (1982)
Min Temperature 36 °F 22 °F -12 °F (1976)
Degree Days  
Heating Degree Days 24 35  
Month to date heating degree days 105  
Since 1 July heating degree days 1739  
Cooling Degree Days 0 0  
Month to date cooling degree days 0  
Year to date cooling degree days 346  
Moisture  
Dew Point 34 °F    
Average Humidity 82    
Maximum Humidity 95    
Minimum Humidity 70    
Precipitation  
Precipitation 0.00 in - 0.58 in (1991)
Month to date precipitation  
Year to date precipitation  
Sea Level Pressure  
Sea Level Pressure 30.17 in    
Wind  
Wind Speed 5 mph (West)    
Max Wind Speed 10 mph    
Max Gust Speed 18 mph    
Visibility 9 miles    
Events Rain    
T = Trace of Precipitation, MM = Missing Value Source: NWS Daily Summary

Daily Weather History Graph

Daily Weather History Graph

Search for Another Location

Airport or City:

Trip Planner

Search our weather history database for the weather conditions in past years. The results will help you decide how hot, cold, wet, or windy it might be!

Date:

Astronomy

Dec. 03, 2012 Rise Set
Actual Time 7:12 AM EST 4:11 PM EST
Civil Twilight 6:39 AM EST 4:44 PM EST
Nautical Twilight 6:02 AM EST 5:21 PM EST
Astronomical Twilight 5:27 AM EST 5:57 PM EST
Moon 9:02 PM EST (12/3) 10:28 AM EST (12/3)
Length of Visible Light 10h 05m
Length of Day
8h 58m
Waning Gibbous, 78% of the Moon is Illuminated
Dec 3
Waning Gibbous
Dec 6
Last Quarter
Dec 13
New
Dec 20
First Quarter
Dec 28
Full

Hourly Weather History & Observations

Time (EST) Temp. Windchill Dew Point Humidity Pressure Visibility Wind Dir Wind Speed Gust Speed Precip Events Conditions
12:15 AM 44.2 °F 40.3 °F 42.3 °F 93% 29.90 in 3.0 mi South 6.9 mph - N/A   Drizzle
12:35 AM 44.2 °F 41.0 °F 42.3 °F 93% 29.90 in 4.0 mi SSW 5.8 mph - N/A   Drizzle
12:55 AM 44.2 °F 39.7 °F 42.4 °F 93% 29.90 in 2.5 mi SSW 8.1 mph - N/A   Drizzle
1:15 AM 44.2 °F 39.7 °F 42.8 °F 95% 29.91 in 3.0 mi SSW 8.1 mph - N/A   Heavy Drizzle
1:35 AM 44.2 °F 40.3 °F 42.8 °F 95% 29.92 in 3.0 mi SSW 6.9 mph - N/A Rain Rain
1:55 AM 44.4 °F 41.2 °F 42.8 °F 94% 29.93 in 3.0 mi SSW 5.8 mph - N/A   Heavy Drizzle
2:15 AM 44.2 °F 41.8 °F 42.8 °F 95% 29.95 in 2.0 mi WSW 4.6 mph - N/A   Heavy Drizzle
2:35 AM 44.8 °F 43.3 °F 43.2 °F 94% 29.96 in 2.5 mi WSW 3.5 mph - N/A   Heavy Drizzle
2:55 AM 46.0 °F 42.5 °F 44.6 °F 95% 29.98 in 3.0 mi West 6.9 mph - N/A   Drizzle
3:15 AM 44.8 °F 42.4 °F 43.0 °F 93% 30.00 in 7.0 mi West 4.6 mph - N/A   Overcast
3:35 AM 44.2 °F 38.8 °F 42.4 °F 93% 30.02 in 10.0 mi West 10.4 mph - N/A   Overcast
3:55 AM 44.1 °F 39.0 °F 41.2 °F 90% 30.03 in 10.0 mi WNW 9.2 mph 18.4 mph N/A   Overcast
4:15 AM 42.1 °F 37.7 °F 38.8 °F 88% 30.05 in 10.0 mi WNW 6.9 mph 16.1 mph N/A   Overcast
4:35 AM 40.6 °F 35.4 °F 36.9 °F 86% 30.06 in 10.0 mi WNW 8.1 mph - N/A   Overcast
4:55 AM 40.1 °F 34.1 °F 35.8 °F 85% 30.08 in 10.0 mi WNW 9.2 mph - N/A   Overcast
5:15 AM 39.4 °F 33.8 °F 34.7 °F 83% 30.10 in 10.0 mi West 8.1 mph 18.4 mph N/A   Overcast
5:35 AM 39.2 °F 34.2 °F 34.7 °F 84% 30.10 in 10.0 mi West 6.9 mph - N/A   Overcast
5:55 AM 38.3 °F 33.9 °F 33.8 °F 84% 30.11 in 10.0 mi WNW 5.8 mph - N/A   Overcast
6:15 AM 38.3 °F 33.9 °F 33.8 °F 84% 30.11 in 10.0 mi WNW 5.8 mph - N/A   Overcast
6:35 AM 37.6 °F 33.1 °F 33.4 °F 85% 30.13 in 10.0 mi WNW 5.8 mph - N/A   Overcast
6:55 AM 36.9 °F 32.2 °F 32.5 °F 84% 30.15 in 10.0 mi NW 5.8 mph - N/A   Overcast
7:15 AM 36.9 °F 34.3 °F 32.5 °F 84% 30.16 in 10.0 mi West 3.5 mph - N/A   Overcast
7:35 AM 36.9 °F 34.3 °F 32.2 °F 83% 30.17 in 10.0 mi NW 3.5 mph - N/A   Overcast
7:55 AM 36.9 °F 32.2 °F 32.4 °F 84% 30.18 in 10.0 mi NW 5.8 mph - N/A   Overcast
8:15 AM 36.9 °F 33.1 °F 32.5 °F 84% 30.19 in 10.0 mi NW 4.6 mph - N/A   Overcast
8:35 AM 36.9 °F 34.3 °F 32.9 °F 86% 30.20 in 10.0 mi WNW 3.5 mph - N/A   Overcast
8:55 AM 36.9 °F 34.3 °F 32.4 °F 84% 30.20 in 10.0 mi WNW 3.5 mph - N/A   Overcast
9:15 AM 36.9 °F 32.2 °F 32.2 °F 83% 30.21 in 10.0 mi WNW 5.8 mph - N/A   Overcast
9:35 AM 36.9 °F 34.3 °F 32.0 °F 83% 30.22 in 10.0 mi West 3.5 mph - N/A   Overcast
9:55 AM 36.9 °F 31.4 °F 32.0 °F 83% 30.23 in 10.0 mi West 6.9 mph - N/A   Overcast
10:15 AM 36.9 °F 31.4 °F 31.8 °F 82% 30.24 in 10.0 mi West 6.9 mph - N/A   Overcast
10:35 AM 37.2 °F 33.6 °F 32.0 °F 81% 30.24 in 10.0 mi West 4.6 mph - N/A   Overcast
10:55 AM 38.3 °F 34.8 °F 32.0 °F 78% 30.24 in 10.0 mi West 4.6 mph - N/A   Overcast
11:15 AM 38.8 °F 35.4 °F 32.0 °F 76% 30.23 in 10.0 mi West 4.6 mph - N/A   Overcast
11:35 AM 39.6 °F 37.4 °F 32.0 °F 74% 30.23 in 10.0 mi West 3.5 mph - N/A   Overcast
11:55 AM 39.4 °F 35.2 °F 31.6 °F 74% 30.22 in 10.0 mi West 5.8 mph - N/A   Overcast
12:15 PM 39.4 °F 35.2 °F 31.6 °F 74% 30.23 in 10.0 mi West 5.8 mph - N/A   Overcast
12:35 PM 39.4 °F 37.2 °F 32.0 °F 75% 30.23 in 10.0 mi West 3.5 mph - N/A   Overcast
12:55 PM 39.4 °F 36.1 °F 32.0 °F 75% 30.23 in 10.0 mi WNW 4.6 mph - N/A   Overcast
1:15 PM 39.4 °F 37.2 °F 31.8 °F 74% 30.23 in 10.0 mi WNW 3.5 mph - N/A   Overcast
1:35 PM 39.4 °F - 31.8 °F 74% 30.23 in 10.0 mi Calm Calm - N/A   Overcast
1:55 PM 39.4 °F 37.2 °F 31.6 °F 74% 30.23 in 10.0 mi West 3.5 mph - N/A   Overcast
2:35 PM 39.4 °F - 31.1 °F 72% 30.23 in 10.0 mi Calm Calm - N/A   Overcast
2:55 PM 39.4 °F 37.2 °F 30.7 °F 71% 30.24 in 10.0 mi West 3.5 mph - N/A   Overcast
3:15 PM 39.4 °F - 30.2 °F 70% 30.24 in 10.0 mi Calm Calm - N/A   Overcast
3:35 PM 39.4 °F - 30.2 °F 70% 30.25 in 10.0 mi Calm Calm - N/A   Overcast
3:55 PM 39.4 °F - 30.2 °F 70% 30.25 in 10.0 mi Calm Calm - N/A   Overcast
4:15 PM 38.8 °F - 30.4 °F 72% 30.25 in 10.0 mi Calm Calm - N/A   Overcast
4:35 PM 38.3 °F - 30.7 °F 74% 30.25 in 10.0 mi Calm Calm - N/A   Overcast
4:55 PM 37.9 °F - 31.6 °F 78% 30.26 in 10.0 mi Calm Calm - N/A   Overcast
5:15 PM 37.4 °F - 31.1 °F 78% 30.26 in 10.0 mi Calm Calm - N/A   Overcast
5:35 PM 36.9 °F - 31.3 °F 80% 30.25 in 10.0 mi Calm Calm - N/A   Overcast
5:55 PM 37.2 °F - 31.5 °F 80% 30.25 in 10.0 mi Calm Calm - N/A   Overcast
6:15 PM 37.0 °F - 31.1 °F 79% 30.25 in 10.0 mi Calm Calm - N/A   Overcast
6:35 PM 36.9 °F - 31.1 °F 80% 30.25 in 10.0 mi Calm Calm - N/A   Overcast
6:55 PM 36.9 °F - 31.1 °F 80% 30.25 in 10.0 mi Calm Calm - N/A   Overcast
7:15 PM 36.9 °F - 31.5 °F 81% 30.25 in 10.0 mi Calm Calm - N/A   Overcast
7:35 PM 36.9 °F - 31.6 °F 81% 30.25 in 10.0 mi Calm Calm - N/A   Overcast
7:55 PM 36.9 °F 33.1 °F 31.8 °F 82% 30.25 in 10.0 mi East 4.6 mph - N/A   Overcast
8:15 PM 36.9 °F - 32.0 °F 83% 30.25 in 10.0 mi Calm Calm - N/A   Overcast
8:35 PM 36.9 °F 33.1 °F 31.6 °F 81% 30.25 in 10.0 mi ESE 4.6 mph - N/A   Overcast
8:55 PM 36.9 °F 33.1 °F 32.0 °F 83% 30.25 in 10.0 mi ESE 4.6 mph - N/A   Overcast
9:15 PM 36.9 °F 34.3 °F 32.0 °F 83% 30.25 in 10.0 mi SE 3.5 mph - N/A   Overcast
9:35 PM 36.9 °F - 32.0 °F 83% 30.25 in 10.0 mi Calm Calm - N/A   Overcast
9:55 PM 37.0 °F 33.3 °F 32.0 °F 82% 30.26 in 10.0 mi SSE 4.6 mph - N/A   Overcast
10:15 PM 37.9 °F 33.5 °F 32.0 °F 79% 30.25 in 10.0 mi SE 5.8 mph - N/A   Overcast
10:35 PM 38.3 °F 35.9 °F 31.3 °F 76% 30.25 in 10.0 mi South 3.5 mph - N/A   Overcast
10:55 PM 37.2 °F - 31.3 °F 79% 30.24 in 10.0 mi Calm Calm - N/A   Overcast
11:15 PM 37.0 °F 33.3 °F 31.5 °F 80% 30.23 in 10.0 mi ESE 4.6 mph - N/A   Overcast
11:35 PM 36.9 °F 32.2 °F 31.6 °F 81% 30.23 in 10.0 mi East 5.8 mph - N/A   Overcast
11:55 PM 36.9 °F 33.1 °F 31.8 °F 82% 30.23 in 10.0 mi ESE 4.6 mph - N/A   Overcast